Location: Belfast
(54.5830°N, 5.9330°W)
Time: 12:53:20
(UTC+01:00)

ISS - Pass Details

Date: 26 May 2018
Orbit: 402 x 407 km, 51.6° (Epoch: 20 May)

Event Time Altitude Azimuth Distance (km) Brightness Sun altitude
Rises 01:45:16 0° 276° (W) 2,322 0.0 -14.1°
Reaches altitude 10° 01:47:33 10° 262° (W) 1,459 -1.2 -14.1°
Enters shadow 01:49:39 23° 225° (SW) 900 -2.5 -14.1°
